Location: *
(45.6667°S, 157.1333°W)
Time: 03:54:39
(UTC+00:00)

Daily predictions for brighter satellites

Satellite Brightness Start Highest point End
(mag) Time Altitude Azimuth Time Altitude Azimuth Time Altitude Azimuth
Cosmos 2360 Rocket 2.6 04:51:59 10° SSW 04:57:42 72° WNW 05:03:22 10° NNE
Cosmos 1908 Rocket 3.6 04:55:38 10° S 05:00:12 85° E 05:04:40 10° N
Okean 1-7 3.0 04:57:41 10° N 05:02:02 77° E 05:06:28 10° SSE
CZ-4C R/B 3.5 04:59:29 10° NE 05:02:47 41° ESE 05:06:09 10° S
Meteor PRIRODA 3.8 05:00:16 10° SSE 05:04:03 84° WSW 05:07:46 10° NNW
NOAA 6 4.1 04:59:46 10° SSE 05:04:56 60° ENE 05:10:01 10° N
COSMOS 2428 3.2 04:59:30 10° SSW 05:04:58 43° SE 05:10:25 10° NE
ADEOS 3.7 04:59:40 10° SSE 05:05:01 90° WSW 05:10:17 10° NNW
SJ-11-01 4.3 05:00:46 10° SSE 05:05:30 65° ENE 05:10:10 10° N
Cosmos 1437 Rocket 3.0 05:02:33 10° SSW 05:06:43 79° W 05:10:43 10° N
Cosmos 1300 Rocket 4.4 05:02:57 10° S 05:06:56 31° ESE 05:10:51 10° NE
Cosmos 1782 Rocket 3.7 05:03:18 10° S 05:07:43 54° ESE 05:12:02 10° NNE
CZ-2D R/B 3.9 05:04:18 10° S 05:08:11 62° WSW 05:12:01 10° NNW
Meteor 2-15 4.5 05:04:33 10° N 05:10:40 67° E 05:16:51 10° SSE
CZ-4C R/B 4.3 05:07:59 10° NE 05:12:18 15° ENE 05:16:21 10° ESE
Cosmos 405 Rocket 3.6 05:09:16 10° NNW 05:13:01 54° WSW 05:16:45 10° S
YAOGAN 1 4.0 05:10:43 10° SE 05:13:44 18° E 05:16:42 10° NE
Cosmos 2333 4.4 05:09:21 10° SSW 05:15:10 82° WNW 05:20:57 10° NNE
SJ 16-02 1.5 05:11:45 10° SSW 05:16:12 59° ESE 05:20:34 10° NNE
Cosmos 1777 Rocket 4.5 05:12:31 10° S 05:17:39 44° ESE 05:22:43 10° NE
KORONAS-FOTON 4.3 05:15:03 10° NNE 05:18:36 38° E 05:22:10 10° SSE
ARGOS 3.3 05:15:15 10° SSE 05:20:45 82° WSW 05:26:09 10° NNW
Cosmos 2195 Rocket 4.5 05:15:21 10° S 05:21:35 79° E 05:27:44 10° NNE
GEOS 3 Rocket 4.0 05:16:38 10° NNE 05:21:58 72° NW 05:27:18 10° SW
Cosmos 1428 Rocket 4.4 05:15:45 10° S 05:21:58 77° E 05:28:07 10° NNE
CZ-4B R/B 4.1 05:17:46 10° SE 05:22:12 25° E 05:26:32 10° NNE
Cosmos 2322 Rocket 4.2 05:18:21 10° SW 05:23:14 30° WNW 05:28:07 10° NNW
Okean 2 4.1 05:22:08 10° NNE 05:25:50 32° E 05:29:34 10° SSE
Cosmos 2279 Rocket 4.4 05:21:37 10° NNE 05:27:26 42° E 05:33:19 10° SSE
Cosmos 1707 2.7 05:24:53 10° N 05:28:46 74° E 05:32:43 10° SSE
Cosmos 1842 4.1 05:25:06 10° NNW 05:28:59 57° W 05:32:56 10° S
USA 305 4.4 05:26:13 10° SW 05:29:49 27° S 05:33:25 10° ESE
CZ-4B R/B 3.8 05:26:54 10° S 05:31:02 58° WSW 05:35:17 10° NNW
Cosmos 1503 Rocket 4.1 05:26:49 10° SSW 05:32:12 84° WNW 05:37:28 10° NNE
Cosmos 1634 Rocket 4.0 05:26:04 10° N 05:32:18 70° E 05:38:40 10° SSE
Meteor 2-15 Rocket 4.4 05:26:10 10° N 05:32:20 76° E 05:38:34 10° SSE
Geosat 4.2 05:28:26 10° NE 05:33:20 54° ESE 05:38:18 10° SSW
SL-16 R/B 4.2 05:31:43 10° S 05:34:43 14° SE 05:37:41 10° ESE
X-37B 2.3 05:32:36 10° W 05:34:55 22° NNW 05:37:03 11° NNE
Cosmos 1626 2.1 05:32:20 10° N 05:35:56 55° E 05:39:36 10° SSE
Aureole 3 Rocket 4.1 05:38:57 18° E 05:39:15 18° E 05:41:41 10° SE
Cosmos 2026 Rocket 4.1 05:32:53 10° S 05:39:17 90° SW 05:45:32 10° N
Cosmos 1271 Rocket 4.4 05:38:02 10° SSE 05:40:23 15° ESE 05:40:54 15° ESE
Cosmos 2151 Rocket 4.4 05:38:16 10° S 05:42:22 32° ESE 05:45:00 18° NE
COSMOS 2455 4.2 05:37:21 10° SW 05:42:56 40° WNW 05:48:28 10° N
CZ-4B DEB 4.2 05:37:32 10° SSE 05:43:07 71° ENE 05:48:36 10° N
Lacrosse 5 rocket 1.1 05:39:34 10° NW 05:43:08 58° NE 05:46:51 10° SE
Cosmos 2322 3.9 05:38:46 10° SSW 05:44:33 78° WNW 05:50:15 10° NNE
H-2A R/B 2.6 05:42:37 14° NE 05:46:09 43° ESE 05:50:30 10° S
Cosmos 2242 Rocket 4.2 05:41:43 10° NNW 05:46:11 62° WSW 05:50:45 10° S
Genesis I 3.4 05:45:22 10° NW 05:49:00 66° SW 05:52:40 10° SSE
Cosmos 1758 3.2 05:45:42 10° S 05:49:46 77° E 05:53:45 10° NNE
Cosmos 1908 3.2 05:47:46 10° S 05:51:42 65° E 05:55:10 12° NNE
Cosmos 1607 4.0 05:46:29 10° SW 05:52:56 77° SE 05:57:56 17° NE
PSLV R/B 3.8 05:50:02 10° SSE 05:54:09 80° ENE 05:58:08 10° N
ATLAS 3B R/B 3.3 05:50:09 10° N 05:56:49 37° ENE 06:03:12 10° SE
Sich 1 Rocket 3.7 05:52:38 10° S 05:57:11 59° ESE 06:00:41 16° NNE
CZ-4B R/B 2.7 06:01:01 20° SE 06:01:01 20° SE 06:02:52 10° SSE
Cosmos 1674 Rocket 4.1 06:01:40 20° NNE 06:04:16 38° E 06:08:29 10° SSE
USA 307 4.2 06:02:42 10° SW 06:06:26 30° SSE 06:08:29 20° ESE
USA 276 2.2 06:03:30 10° WNW 06:06:32 68° SSW 06:07:38 35° SE
FALCON 9 DEB 3.0 06:03:29 10° NW 06:06:37 53° NE 06:07:03 48° ENE
Cosmos 1818 4.5 06:02:08 10° WNW 06:07:23 50° SW 06:12:41 10° SSE
Cosmos 2227 Rocket 3.1 06:07:49 26° ENE 06:07:49 26° ENE 06:12:29 10° SE
ATLAS 5 CENTAUR R/B 2.1 06:03:54 10° SW 06:09:44 59° SE 06:11:58 31° ENE
SL-14 R/B 3.4 06:10:28 21° NNE 06:12:57 52° E 06:16:58 10° SSE
CZ-4 R/B 1.4 06:11:27 10° SSE 06:15:23 52° E 06:17:23 26° NNE
Cosmos 2333 Rocket 4.2 06:11:58 10° SW 06:16:46 28° WNW 06:21:34 10° NNW
Cosmos 1980 3.7 06:13:16 10° SSW 06:18:57 64° ESE 06:21:35 32° NE
USA 306 3.9 06:15:15 10° SW 06:19:07 35° SSE 06:20:30 27° ESE
Cosmos 2219 Rocket 3.7 06:16:22 10° SW 06:21:29 35° WNW 06:26:34 10° N
Cosmos 2297 Rocket 2.3 06:16:21 10° N 06:21:49 51° ENE 06:27:20 10° SE
Cosmos 2221 Rocket 3.5 06:19:08 10° N 06:23:44 82° E 06:28:22 10° S
Cosmos 1238 Rocket 4.0 06:23:36 10° S 06:29:03 40° ESE 06:29:46 38° E
Cosmos 1953 2.2 06:27:26 10° S 06:31:35 79° E 06:32:26 54° NNE
Cosmos 1378 Rocket 3.4 06:31:31 31° N 06:33:34 76° E 06:37:58 10° SSE
Cosmos 1655 Rocket 4.0 06:27:14 10° S 06:33:43 68° E 06:37:01 30° NNE
ERBS 4.2 06:31:36 10° SSW 06:33:25 18° SSE 06:33:25 18° SSE
Okean O Rocket 1.5 06:29:40 10° SSE 06:34:09 90° WSW 06:38:32 10° NNW
Cosmos 1763 Rocket 3.5 06:35:33 25° N 06:38:33 57° ENE 06:43:47 10° SSE
HJ-1C 4.4 06:36:13 10° S 06:39:18 44° WSW 06:41:29 17° NW
Cosmos 2237 Rocket 2.1 06:33:57 10° SSW 06:39:45 85° ESE 06:41:48 42° NNE
CRYOSAT 2 4.3 06:36:19 10° S 06:41:18 86° W 06:44:29 22° N
USA 308 3.7 06:37:38 10° SW 06:41:34 39° SSE 06:42:05 37° SE
SL-8 R/B 3.6 06:39:04 10° WNW 06:43:54 72° NNE 06:44:32 62° ENE
Okean 1 Rocket 2.9 06:41:45 10° S 06:46:12 73° E 06:46:20 72° E
Cosmos 724 4.3 06:41:58 10° SW 06:48:01 81° WNW 06:49:57 45° NNE
COSMOS 2428 4.2 06:44:01 10° SW 06:49:04 32° WNW 06:53:59 10° NNW
YAOGAN 1 3.5 06:45:49 10° S 06:50:04 48° WSW 06:54:16 10° NW
Okean 2 Rocket 4.1 06:48:42 10° SSW 06:52:59 45° W 06:55:22 23° NNW
SJ 16-02 4.2 06:51:41 10° WSW 06:54:11 15° W 06:56:40 10° NW
Cosmos 1300 2.9 06:50:59 10° SSW 06:54:38 68° WSW 06:54:38 68° WSW
Cosmos 2266 Rocket 4.0 06:49:07 10° S 06:55:24 79° W 06:58:47 30° N
Cosmos 220 Rocket 4.1 06:54:22 10° SSW 06:58:34 72° SSE 06:58:34 72° SSE
Cosmos 2219 3.7 07:00:24 43° ESE 07:00:24 43° ESE 07:04:29 10° SE
CZ-4C R/B 2.9 06:51:41 10° NNW 07:00:04 64° ENE 07:07:10 10° SE
Meteor 2-17 Rocket 4.3 06:56:17 10° S 07:02:28 89° W 07:04:20 48° N
Feng Yun 1-1 Rocket 4.4 06:56:49 10° SSE 07:02:50 80° WSW 07:08:39 10° NNW
USA 81 3.9 07:02:55 70° E 07:02:57 70° E 07:08:18 10° S
CZ-4B R/B 4.1 06:57:48 10° S 07:03:00 48° WSW 07:08:06 10° NW
Meteor 2-5 Rocket 4.1 07:08:21 49° ESE 07:08:21 49° ESE 07:13:10 10° SSE
CSL-04 Rocket 3.7 07:02:21 10° SSE 07:07:01 58° ESE 07:07:01 58° ESE
USA 305 3.6 07:05:39 10° SW 07:08:59 50° SSW 07:08:59 50° SSW
Resurs 01 Rocket 4.2 07:12:13 10° SSE 07:12:26 11° SSE 07:12:26 11° SSE
Cosmos 1271 Rocket 4.0 07:12:52 10° SSW 07:15:56 38° WSW 07:15:56 38° WSW
SL-16 R/B 2.3 07:14:21 10° SSW 07:19:50 61° SE 07:19:50 61° SE
H-2A R/B 4.4 07:19:38 14° NW 07:22:14 22° W 07:25:48 10° SW
Lacrosse 5 rocket 3.0 07:19:07 10° W 07:22:21 27° SSW 07:22:29 27° SSW
Meteor 2-10 Rocket 4.5 07:20:24 10° SSW 07:25:25 45° W 07:26:58 36° NW
Cosmos 1937 Rocket 3.7 07:20:11 10° SSW 07:24:49 65° S 07:24:49 65° S
CZ-2C R/B 4.4 07:30:04 53° SW 07:30:04 53° SW 07:33:42 10° SSW
CZ-4B R/B 4.4 07:33:06 13° WSW 07:33:06 13° WSW 07:33:46 10° SW
Cosmos 44 4.5 07:29:52 10° SSW 07:33:57 37° SSE 07:33:57 37° SSE
Okean-O 3.9 07:32:53 10° S 07:35:47 38° S 07:35:47 38° S
ATLAS 3B R/B 3.3 07:40:03 10° NW 07:47:19 59° SW 07:54:13 10° SSE
CZ-4 R/B 4.3 07:47:31 10° SSW 07:49:55 16° WSW 07:52:20 10° W
Cosmos 2227 Rocket 2.9 07:49:16 33° WNW 07:51:32 53° WSW 07:57:09 10° SSE
Cosmos 1898 Rocket 4.4 07:46:51 10° SSW 07:51:09 44° W 07:51:09 44° W
ATLAS 5 CENTAUR R/B 3.8 07:49:37 10° WSW 07:53:25 22° WNW 07:53:25 22° WNW
Cosmos 2297 Rocket 4.0 08:01:11 10° WNW 08:06:07 30° SW 08:11:06 10° S
USA 234 4.3 08:07:56 32° SE 08:09:39 37° SSE 08:15:37 10° SW
Cosmos 2237 Rocket 4.5 08:19:48 10° WSW 08:22:59 15° W 08:23:39 15° WNW
NOSS 3-1 (C) 4.2 08:17:56 10° NW 08:27:04 78° SW 08:34:54 10° SE
CZ-4C R/B 3.9 08:41:29 10° WNW 08:49:04 41° SW 08:55:27 10° SSE
Cosmos 2263 Rocket 4.3 08:55:43 21° SSE 08:55:43 21° SSE 08:57:29 10° SSE
Resurs 01 Rocket 4.4 08:48:49 10° S 08:50:00 16° SSW 08:50:00 16° SSW
SL-16 R/B 4.4 08:59:23 10° SW 09:01:43 19° WSW 09:01:43 19° WSW
CENTAUR R/B 4.3 09:21:45 10° SSW 09:25:32 21° SSE 09:25:32 21° SSE
USA 281 4.4 10:43:57 10° SSE 10:47:54 38° S 10:47:54 38° S
ADEOS Rocket 4.4 10:43:57 10° S 10:48:20 40° S 10:48:20 40° S
USA 267 4.3 10:54:16 10° SE 10:58:44 40° SSE 10:58:44 40° SSE
CZ-2D R/B 4.5 11:26:35 17° SSW 11:26:35 17° SSW 11:27:44 10° SSW
Resurs 1-4 Rocket 4.4 11:26:46 18° SSW 11:26:46 18° SSW 11:28:02 10° SSW
Cosmos 2082 Rocket 4.1 11:47:03 10° SSW 11:49:09 23° SSW 11:49:09 23° SSW
